Hawthorne, CA

6:58 PM PDT on August 23, 2017 (GMT -0700)
Northrop-Hawthorne Municipal

Weather History for KHHR - November, 2013

Change the Weather History Date:

Tuesday, November 26, 2013

  Actual Average Record
Temperature  
Mean Temperature 64 °F -  
Max Temperature 75 °F 70 °F 87 °F (1956)
Min Temperature 52 °F 50 °F 42 °F (1965)
Degree Days  
Heating Degree Days 2    
Growing Degree Days 14 (Base 50)    
Moisture  
Dew Point 43 °F    
Average Humidity 52    
Maximum Humidity 77    
Minimum Humidity 17    
Precipitation  
Precipitation 0.00 in - - ()
Sea Level Pressure  
Sea Level Pressure 30.11 in    
Wind  
Wind Speed 2 mph (WNW)    
Max Wind Speed 10 mph    
Max Gust Speed -    
Visibility 10 miles    
Events      
Averages and records for this station are not official NWS values.
T = Trace of Precipitation, MM = Missing Value Source: NWS Daily Summary

Daily Weather History Graph

Daily Weather History Graph

Search for Another Location

Airport or City:

Trip Planner

Search our weather history database for the weather conditions in past years. The results will help you decide how hot, cold, wet, or windy it might be!

Date:

Astronomy

Nov. 26, 2013 Rise Set
Actual Time 6:36 AM PST 4:45 PM PST
Civil Twilight 6:09 AM PST 5:12 PM PST
Nautical Twilight 5:38 AM PST 5:42 PM PST
Astronomical Twilight 5:08 AM PST 6:12 PM PST
Moon 12:02 AM PST (11/26) 12:38 PM PST (11/26)
Length of Visible Light 11h 03m
Length of Day
10h 08m
Last Quarter, 40% of the Moon is Illuminated
Nov 26
Last Quarter
Dec 2
New
Dec 9
First Quarter
Dec 17
Full
Dec 25
Last Quarter

Hourly Weather History & Observations

Time (PST) Temp. Dew Point Humidity Pressure Visibility Wind Dir Wind Speed Gust Speed Precip Events Conditions
12:53 AM 55.0 °F 46.0 °F 72% 30.18 in 10.0 mi Calm Calm - N/A   Clear
1:53 AM 53.1 °F 46.0 °F 77% 30.19 in 10.0 mi Calm Calm - N/A   Clear
2:53 AM 52.0 °F 45.0 °F 77% 30.18 in 10.0 mi Calm Calm - N/A   Clear
3:53 AM 53.1 °F 44.1 °F 71% 30.18 in 10.0 mi Calm Calm - N/A   Clear
4:53 AM 52.0 °F 44.1 °F 74% 30.17 in 10.0 mi Calm Calm - N/A   Clear
5:53 AM 52.0 °F 42.1 °F 69% 30.17 in 10.0 mi Calm Calm - N/A   Clear
6:53 AM 52.0 °F 42.1 °F 69% 30.18 in 10.0 mi Calm Calm - N/A   Clear
7:53 AM 57.0 °F 37.9 °F 49% 30.18 in 10.0 mi Calm Calm - N/A   Clear
8:53 AM 62.1 °F 37.0 °F 39% 30.19 in 10.0 mi East 3.5 mph - N/A   Clear
9:53 AM 69.1 °F 34.0 °F 27% 30.17 in 10.0 mi NE 3.5 mph - N/A   Clear
10:53 AM 73.9 °F 34.0 °F 23% 30.14 in 10.0 mi Calm Calm - N/A   Clear
11:53 AM 75.9 °F 30.9 °F 19% 30.11 in 10.0 mi ESE 4.6 mph - N/A   Clear
12:53 PM 75.9 °F 28.0 °F 17% 30.09 in 10.0 mi West 10.4 mph - N/A   Clear
1:36 PM 68.0 °F 48.2 °F 49% 30.08 in 1.8 mi West 6.9 mph - N/A   Haze
1:50 PM 69.8 °F 48.2 °F 46% 30.08 in 10.0 mi West 10.4 mph - N/A   Clear
1:53 PM 69.1 °F 48.9 °F 49% 30.08 in 10.0 mi West 8.1 mph - N/A   Clear
2:53 PM 68.0 °F 46.9 °F 47% 30.06 in 10.0 mi WNW 5.8 mph - N/A   Clear
3:53 PM 66.9 °F 41.0 °F 39% 30.05 in 10.0 mi WNW 4.6 mph - N/A   Clear
4:53 PM 64.9 °F 45.0 °F 48% 30.05 in 10.0 mi WNW 3.5 mph - N/A   Clear
5:53 PM 64.0 °F 45.0 °F 50% 30.06 in 10.0 mi West 5.8 mph - N/A   Clear
6:53 PM 63.0 °F 46.9 °F 56% 30.06 in 10.0 mi Calm Calm - N/A   Clear
7:53 PM 63.0 °F 46.9 °F 56% 30.06 in 10.0 mi Calm Calm - N/A   Clear
8:53 PM 63.0 °F 46.9 °F 56% 30.05 in 10.0 mi Calm Calm - N/A   Clear
9:53 PM 61.0 °F 48.0 °F 62% 30.06 in 10.0 mi Calm Calm - N/A   Clear
10:53 PM 60.1 °F 46.0 °F 60% 30.05 in 10.0 mi Calm Calm - N/A   Clear
11:53 PM 63.0 °F 39.0 °F 41% 30.04 in 10.0 mi Calm Calm - N/A   Clear